[[{"header":{"parameterUnit":"m.s-1","parameterCategory":1,"la1":30.2991,"la2":30.254,"lo1":-89.0895,"lo2":-89.0444,"dy":0.0017,"dx":0.0017,"nx":28,"ny":28,"refTime":"2023-03-31T21:00:00:Z","depth":0,"parameterNumber":2,"parameterNumberName":"U-component_of_WINDS"},"data":[0,0,0,0,0,0,0,0,0,0,0,0,0,0,0,0,0,0,0,0,0,0,0,0,0,0,0,0,0,0,0,0,0,0,0,0,0,0,0,0,0,0,0,0,0,0,0,0,0,0,0,0,0,0,0,0,0,0,2.3272,2.3272,0,2.3302,2.3303,2.3303,2.326,2.3259,2.3257,2.3256,2.3288,2.329,2.3292,0,0,0,0,0,0,0,0,0,0,0,0,0,2.318,2.3181,2.3272,2.3272,2.3273,2.3302,2.3303,2.3303,2.3261,2.3259,2.3257,2.3255,2.3287,2.329,2.3292,0,0,0,0,0,0,0,0,0,0,0,0,0,2.3216,2.3182,2.3272,2.3255,2.3254,2.3302,2.3303,2.3303,2.3261,2.3259,2.3256,2.3254,2.3286,2.3289,2.3293,2.3359,0,0,2.3303,2.3305,0,0,0,0,0,0,0,0,2.3214,2.3219,2.3257,2.3256,2.3255,2.3275,2.3282,2.3322,2.3262,2.3258,2.3256,2.3253,2.3285,2.3289,2.3299,2.3361,2.3362,2.3303,2.3305,2.3307,2.3308,0,0,0,0,0,0,0,2.3211,2.3218,2.3284,2.3258,2.3257,2.3247,2.3249,2.3289,2.3284,2.3258,2.3255,2.326,2.3284,2.3296,2.33,2.3363,2.3303,2.3306,2.3308,2.331,2.3483,2.3485,0,0,0,0,0,0,2.3211,2.3216,2.3283,2.3285,2.3228,2.325,2.3253,2.3271,2.3284,2.3283,2.3261,2.3257,2.3292,2.3296,2.3301,2.3381,2.3307,2.331,2.3312,2.348,2.3483,2.3486,0,0,0,0,0,0,2.3209,2.3217,2.3282,2.325,2.3257,2.3254,2.3275,2.3273,2.3285,2.3286,2.3285,2.3274,2.329,2.3296,2.3346,2.3381,2.3312,2.3315,2.3477,2.3481,2.3485,2.3541,0,0,0,0,0,0,2.3206,2.3217,2.3241,2.3251,2.3259,2.3325,2.3277,2.3275,2.3291,2.3286,2.3298,2.3298,2.3289,2.3341,2.3349,2.3385,2.3317,2.3474,2.3479,2.3483,2.3536,2.3546,2.3555,0,0,0,0,0,2.3203,2.3255,2.3243,2.3251,2.3289,2.3327,2.3332,2.3321,2.3294,2.3319,2.332,2.3297,2.3376,2.3346,2.3355,2.3392,2.3471,2.3477,2.3483,2.3531,2.3544,2.3555,0,0,0,0,0,0,2.325,2.3256,2.3242,2.3299,2.3313,2.332,2.3351,2.3334,2.3356,2.3351,2.3336,2.3339,2.3392,2.3397,2.3364,2.3459,2.342,2.3427,2.3453,2.3465,2.3475,2.3472,2.332,0,0,0,0,0,2.3267,2.3296,2.3301,2.335,2.3358,2.3354,2.337,2.336,2.3374,2.338,2.3385,2.34,2.3428,2.3447,2.3473,2.3537,2.354,2.3567,2.3577,2.3585,2.3591,2.3627,2.364,2.3505,2.3505,2.3505,0,0,2.3301,2.3309,2.3328,2.336,2.337,2.3402,2.3359,2.3394,2.3418,2.3385,2.3432,2.3437,2.3453,2.351,2.3536,2.3516,2.363,2.3592,2.3598,2.3601,2.3635,2.3648,2.3659,2.3509,2.3508,2.3507,0,0,2.3382,2.339,2.3433,2.3444,2.346,2.3457,2.3468,2.3479,2.348,2.3528,2.3504,2.3533,2.3582,2.3595,2.3608,2.3697,2.3677,2.3706,2.3756,2.3791,2.3802,2.3811,2.3844,2.3855,2.3712,2.3713,2.3713,0,2.3423,2.347,2.3457,2.3495,2.351,2.3483,2.3527,2.3539,2.3563,2.3574,2.3552,2.3614,2.3623,2.3684,2.3706,2.3717,2.373,2.3704,2.3801,2.381,2.3819,2.385,2.3862,2.3716,2.3716,2.3715,2.3715,0,2.3521,2.3554,2.3587,2.3612,2.3631,2.3672,2.3666,2.3687,2.3677,2.3677,2.3727,2.3736,2.3765,2.3779,2.3768,2.3839,2.3827,2.3803,2.3763,2.3835,2.3864,2.3876,2.3721,2.372,2.3719,2.3718,0,0,2.3629,2.3648,2.366,2.3672,2.3689,2.3715,2.3756,2.3784,2.3803,2.3821,2.3855,2.3899,2.3878,2.3893,2.3884,2.3915,2.3986,2.3887,2.3888,2.3906,2.4067,2.4085,2.4098,2.3974,2.3976,2.3978,2.4066,0,2.371,2.378,2.3771,2.3838,2.387,2.3846,2.3882,2.3897,2.3898,2.3926,2.3928,2.396,2.3929,2.3938,2.3968,2.3971,2.4018,2.3965,2.4007,2.4008,2.4003,2.4113,2.4132,2.4214,2.4077,2.4079,2.408,0,2.3813,2.3836,2.3907,2.3921,2.3934,2.3966,2.3992,2.4019,2.4036,2.4036,2.4054,2.404,2.4083,2.4043,2.4102,2.4065,2.4082,2.4087,2.409,2.4093,2.4048,2.412,2.424,2.4252,2.4098,2.4096,2.4095,0,2.3886,2.3935,2.3984,2.3994,2.4012,2.4036,2.4044,2.4059,2.4078,2.4101,2.4113,2.4141,2.4157,2.418,2.4175,2.4146,2.4236,2.4195,2.4237,2.4237,2.4256,2.4255,2.4381,2.4267,2.4267,2.4267,2.4267,0,2.3977,2.4022,2.4017,2.4047,2.4097,2.4087,2.4137,2.4143,2.4157,2.4189,2.417,2.42,2.4192,2.4222,2.4219,2.4269,2.4276,2.4277,2.4276,2.4279,2.4279,2.429,2.4284,2.427,2.4269,2.4269,2.4268,0,2.4067,2.4065,2.4117,2.4131,2.4135,2.4171,2.4183,2.4212,2.4214,2.4254,2.4263,2.4266,2.4301,2.4298,2.4338,2.4335,2.4398,2.4389,2.4392,2.439,2.4433,2.4429,2.457,2.4588,2.4463,2.4464,2.4465,0,2.4125,2.4159,2.4176,2.4196,2.4207,2.4239,2.4258,2.4251,2.4272,2.4296,2.4323,2.4356,2.4382,2.444,2.4446,2.4477,2.4469,2.4517,2.4473,2.4476,2.4471,2.4469,2.4473,2.4525,2.4526,2.4527,2.4528,0,2.4229,2.4227,2.4255,2.4284,2.4308,2.433,2.435,2.4368,2.4363,2.4388,2.4424,2.4445,2.4486,2.452,2.455,2.456,2.4544,2.4542,2.4553,2.4557,2.4557,2.4558,2.4415,2.4538,2.4537,2.4537,2.4536,2.4536,2.4304,2.4334,2.4352,2.4385,2.44,2.442,2.4448,2.4454,2.4484,2.4517,2.4511,2.4552,2.4571,2.461,2.4623,2.4655,2.4638,2.4655,2.4659,2.4663,2.4668,2.4553,2.4661,2.466,2.466,2.466,2.466,0,2.4408,2.4418,2.4449,2.4479,2.4505,2.4488,2.4511,2.4534,2.457,2.4589,2.4617,2.4659,2.4693,2.4702,2.4735,2.476,2.4753,2.4769,2.4766,2.4769,2.4681,2.4668,2.4773,2.4773,2.4773,2.4773,2.4773,2.4773,2.4464,2.4514,2.4515,2.4573,2.4584,2.4624,2.4638,2.4658,2.4673,2.4722,2.475,2.4756,2.4772,2.4806,2.4837,2.4839,2.4852,2.487,2.4869,2.4787,2.4775,2.4764,2.4752,2.4873,2.4873,2.4955,2.4956,2.4956]},{"header":{"parameterUnit":"m.s-1","parameterCategory":1,"la1":30.2991,"la2":30.254,"lo1":-89.0895,"lo2":-89.0444,"dy":0.0017,"dx":0.0017,"nx":28,"ny":28,"refTime":"2023-03-31T21:00:00:Z","depth":0,"parameterNumber":3,"parameterNumberName":"V-component_of_WINDS"},"data":[0,0,0,0,0,0,0,0,0,0,0,0,0,0,0,0,0,0,0,0,0,0,0,0,0,0,0,0,0,0,0,0,0,0,0,0,0,0,0,0,0,0,0,0,0,0,0,0,0,0,0,0,0,0,0,0,0,0,1.6673,1.6676,0,1.6942,1.6945,1.6948,1.6948,1.6945,1.6941,1.6938,1.7218,1.7228,1.7239,0,0,0,0,0,0,0,0,0,0,0,0,0,1.6162,1.6171,1.6673,1.6676,1.6679,1.6941,1.6945,1.6949,1.6949,1.6945,1.694,1.6936,1.7215,1.7227,1.724,0,0,0,0,0,0,0,0,0,0,0,0,0,1.6403,1.6174,1.6672,1.6711,1.6717,1.694,1.6945,1.6949,1.695,1.6945,1.6939,1.6934,1.721,1.7226,1.7242,1.7446,0,0,1.7291,1.7298,0,0,0,0,0,0,0,0,1.6389,1.6422,1.6702,1.6709,1.6716,1.6906,1.6867,1.7116,1.6951,1.6862,1.6938,1.6932,1.7119,1.7142,1.7204,1.7459,1.7471,1.7292,1.7302,1.7309,1.7313,0,0,0,0,0,0,0,1.6372,1.641,1.6779,1.6706,1.6715,1.6716,1.6744,1.6915,1.7016,1.6869,1.687,1.6901,1.7122,1.7189,1.7211,1.7475,1.7292,1.7306,1.7316,1.7322,1.7908,1.7913,0,0,0,0,0,0,1.6347,1.6396,1.6771,1.6787,1.6536,1.6729,1.6761,1.685,1.7015,1.7034,1.6905,1.69,1.7164,1.7192,1.7221,1.7469,1.7309,1.7324,1.7333,1.7902,1.7909,1.7915,0,0,0,0,0,0,1.6336,1.6381,1.676,1.6592,1.664,1.6744,1.6844,1.6858,1.6925,1.7042,1.706,1.6955,1.7161,1.7198,1.7389,1.7479,1.7331,1.7346,1.7895,1.7904,1.7912,1.7968,0,0,0,0,0,0,1.6322,1.6377,1.6455,1.6594,1.6649,1.6923,1.685,1.6867,1.6953,1.6948,1.7093,1.7113,1.7159,1.7365,1.7405,1.7498,1.7358,1.7887,1.7899,1.7909,1.7959,1.7978,1.7994,0,0,0,0,0,1.6303,1.6462,1.6459,1.6504,1.6749,1.6929,1.696,1.701,1.696,1.704,1.7114,1.7108,1.7462,1.7384,1.7429,1.7529,1.7882,1.7896,1.7909,1.7951,1.7974,1.7994,0,0,0,0,0,0,1.6334,1.6481,1.648,1.6687,1.6795,1.6928,1.7031,1.7033,1.7159,1.715,1.7207,1.724,1.743,1.7499,1.741,1.7734,1.7666,1.7689,1.7683,1.7706,1.7723,1.7704,1.7372,0,0,0,0,0,1.6364,1.6496,1.6618,1.679,1.6843,1.6927,1.7008,1.7036,1.7151,1.7197,1.7286,1.7398,1.7534,1.7624,1.7756,1.7967,1.7999,1.8058,1.8075,1.8089,1.811,1.8225,1.8253,1.7959,1.7959,1.7959,0,0,1.643,1.6526,1.6607,1.6798,1.6885,1.7021,1.6966,1.7114,1.7216,1.722,1.7405,1.7473,1.7603,1.7804,1.7898,1.7867,1.8197,1.8106,1.8117,1.813,1.8242,1.8269,1.8294,1.7968,1.7966,1.7965,0,0,1.6618,1.6704,1.6856,1.6943,1.7074,1.7128,1.7164,1.7297,1.7342,1.7528,1.7533,1.7655,1.7889,1.7981,1.8058,1.8276,1.8276,1.8318,1.8411,1.8523,1.8546,1.8567,1.8645,1.8673,1.8337,1.8337,1.8337,0,1.6683,1.6888,1.6934,1.7081,1.7165,1.7171,1.7326,1.7408,1.7577,1.7635,1.7597,1.7889,1.7977,1.8199,1.8252,1.8314,1.8357,1.8303,1.8539,1.856,1.8581,1.8656,1.8685,1.8341,1.8341,1.834,1.834,0,1.6961,1.7103,1.721,1.737,1.7465,1.7615,1.7684,1.7775,1.7793,1.7851,1.804,1.8144,1.8297,1.8351,1.8372,1.8577,1.8553,1.8527,1.846,1.8612,1.8684,1.8713,1.8347,1.8346,1.8344,1.8343,0,0,1.7181,1.736,1.7399,1.7471,1.7614,1.7725,1.7874,1.8021,1.8098,1.8213,1.834,1.8535,1.8511,1.8598,1.8629,1.8727,1.8892,1.8688,1.8692,1.8723,1.9123,1.9144,1.9176,1.8891,1.8897,1.8901,1.9113,0,1.7385,1.765,1.7693,1.7926,1.8057,1.8063,1.8193,1.8295,1.8352,1.8472,1.8535,1.8673,1.863,1.8682,1.8779,1.8852,1.8974,1.8837,1.9011,1.9017,1.898,1.9214,1.9237,1.9431,1.9141,1.9146,1.9149,0,1.7661,1.7779,1.8024,1.8147,1.8204,1.832,1.8457,1.8571,1.8686,1.872,1.8816,1.8834,1.8989,1.8912,1.9127,1.9032,1.9105,1.9151,1.916,1.918,1.9094,1.9241,1.9495,1.9524,1.9194,1.919,1.9187,0,1.7796,1.8018,1.8192,1.8253,1.8401,1.8483,1.8548,1.8658,1.8742,1.8862,1.8917,1.9054,1.9129,1.9234,1.9288,1.9228,1.9498,1.9427,1.9532,1.9531,1.9592,1.9588,1.9862,1.9636,1.9635,1.9635,1.9634,0,1.8021,1.8171,1.8255,1.8363,1.853,1.8578,1.8742,1.8806,1.8903,1.9023,1.9036,1.9149,1.9213,1.9335,1.9378,1.9548,1.9582,1.9615,1.9625,1.9615,1.9611,1.9665,1.9654,1.9642,1.9641,1.9639,1.9638,0,1.8203,1.8265,1.8456,1.8579,1.8613,1.8731,1.8836,1.8941,1.8995,1.9147,1.9186,1.9273,1.9416,1.9479,1.9657,1.9686,1.9881,1.9881,1.9842,1.9846,1.9948,1.9938,2.0268,2.0314,2.0056,2.0058,2.006,0,1.8344,1.8458,1.8592,1.8673,1.874,1.887,1.8955,1.9006,1.9094,1.9232,1.932,1.9463,1.9581,1.981,1.989,2.0025,2.0029,2.0135,2.005,2.0035,2.0032,2.0025,2.0037,2.0152,2.0154,2.0156,2.0158,0,1.8586,1.861,1.8733,1.8865,1.8966,1.9073,1.9178,1.9243,1.931,1.9409,1.9555,1.9646,1.9825,1.9967,2.0107,2.0175,2.0179,2.0183,2.0215,2.0207,2.0181,2.0197,1.9886,2.0177,2.0175,2.0173,2.0172,2.0172,1.8753,1.8855,1.8964,1.9099,1.9182,1.9279,1.9383,1.9449,1.9571,1.972,1.9742,1.9898,2.0008,2.0195,2.0267,2.039,2.0364,2.041,2.0422,2.0433,2.044,2.0158,2.0416,2.0415,2.0415,2.0414,2.0414,0,1.8997,1.9067,1.919,1.9335,1.9441,1.9431,1.9546,1.9635,1.9772,1.9873,1.9987,2.0154,2.0291,2.0379,2.0517,2.0598,2.0603,2.0633,2.0629,2.0644,2.0455,2.0414,2.0627,2.0627,2.0627,2.0627,2.0627,2.0626,1.9137,1.9308,1.9345,1.9557,1.9625,1.9777,1.9843,1.9932,2.0013,2.0198,2.0311,2.0367,2.0463,2.0607,2.0732,2.0754,2.0805,2.0837,2.0858,2.068,2.0658,2.0637,2.0599,2.0847,2.0848,2.1038,2.104,2.1041]}]]